Find OneWeb SL0538

NORAD ID: 56047 Int'l Des: 2023-043 Owner: ONEWEBN Country: UK Constellation: oneweb operational
LEOCIRCULARPOLARONEWEB_TYPE

实时位置

正在加载3D地球...

关于 OneWeb SL0538

正在加载描述...

即将过境

Passes for default location (London). Set your location on the main map for personalized predictions.

高度历史

Loading altitude history...

两行轨道根数

1 56047U 23043B 26124.79400906 -.00000057 00000-0 -18273-3 0 9992
2 56047 87.9095 237.3902 0001680 100.4063 259.7257 13.16594432153269
Epoch: May 4, 2026 • Age: 8 hours

当前状态

高度 1201.4 km
速度 7.26 km/s
星下点 34.29°N, 146.55°E
发射日期 Mar 26, 2023
运行时间 3.1 years
类型 internet

技术详情

分类 Payload
质量 148.00 kg
干质量 140.00 kg
总质量 148.00 kg
长度 1.30 m
直径 1.00 m
跨度 5.00 m
形状 Trapezoid+2 pan
制造商 ONEWUS
平台类型 ARROW
阶段状态 In Orbit
所有者/国家 ONEWEBN/UK

Most Searched